This is the latest recevied weather packets stored in our database for station/object SV9TNF-52. If no packets are shown the sender has not sent any weather packets the latest 10 day(s).
| Time | Temp. | Humidity | Pressure | Rain* | Wind** | Luminosity | Snow |
|---|---|---|---|---|---|---|---|
| 1788478767 | 22.78° C | 78% | 1018.3 hPa | 0 mm | 6.26 m/s, 203° | - | - |
| 1788478467 | 22.78° C | 78% | 1018.3 hPa | 0 mm | 4.92 m/s, 150° | - | - |
| 1788478174 | 22.78° C | 77% | 1018.3 hPa | 0 mm | 5.81 m/s, 195° | - | - |
| 1788477867 | 23.33° C | 77% | 1019 hPa | 0 mm | 4.92 m/s, 186° | - | - |
| 1788477566 | 23.33° C | 76% | 1019 hPa | 0 mm | 4.02 m/s, 134° | - | - |
| 1788477266 | 23.33° C | 76% | 1019 hPa | 0 mm | 2.68 m/s, 93° | - | - |
| 1788476966 | 23.89° C | 77% | 1019 hPa | 0 mm | 4.02 m/s, 244° | - | - |
| 1788476666 | 23.33° C | 77% | 1019 hPa | 0 mm | 2.24 m/s, 265° | - | - |
| 1788476366 | 23.33° C | 77% | 1019 hPa | 0 mm | 2.68 m/s, 194° | - | - |
| 1788476066 | 23.33° C | 77% | 1019 hPa | 0 mm | 1.79 m/s, 238° | - | - |
| 1788475766 | 23.33° C | 77% | 1019 hPa | 0 mm | 5.81 m/s, 159° | - | - |
| 1788475466 | 23.33° C | 77% | 1019 hPa | 0 mm | 2.24 m/s, 215° | - | - |
| 1788475166 | 23.33° C | 78% | 1019 hPa | 0 mm | 3.13 m/s, 239° | - | - |
| 1788474865 | 23.33° C | 78% | 1019 hPa | 0 mm | 4.47 m/s, 267° | - | - |
| 1788474565 | 23.33° C | 78% | 1019 hPa | 0 mm | 5.36 m/s, 220° | - | - |
| 1788474266 | 23.33° C | 78% | 1019 hPa | 0 mm | 2.68 m/s, 226° | - | - |
| 1788473965 | 23.33° C | 78% | 1019 hPa | 0 mm | 4.92 m/s, 214° | - | - |
| 1788473665 | 23.33° C | 78% | 1019 hPa | 0 mm | 4.92 m/s, 265° | - | - |
| 1788473365 | 23.33° C | 78% | 1019 hPa | 0 mm | 5.81 m/s, 270° | - | - |
| 1788473065 | 23.33° C | 78% | 1019 hPa | 0 mm | 4.92 m/s, 192° | - | - |
| 1788472765 | 23.33° C | 78% | 1018.3 hPa | 0 mm | 4.92 m/s, 208° | - | - |
| 1788472465 | 23.33° C | 77% | 1018.3 hPa | 0 mm | 4.92 m/s, 179° | - | - |
| 1788472165 | 23.33° C | 77% | 1018.3 hPa | 0 mm | 5.81 m/s, 212° | - | - |
| 1788471864 | 23.33° C | 77% | 1018.3 hPa | 0 mm | 4.47 m/s, 239° | - | - |
| 1788471565 | 23.33° C | 77% | 1018.3 hPa | 0 mm | 6.71 m/s, 208° | - | - |
* Rain latest hour (hover to see other rain measurements)
** Current wind speed in m/s (hover to see current wind gust speed)